EHI
0 0 0 0 0 0 0 0 0 0 0 0 0 0 0 0 0 0 0 0 0 0 0 0 0 0 0 0 0 0 0 0 0 0 0 0 0 0 0 0 0 0 0
0 0 0 0 0 0 0 0 0 0 0 0 0 0 0 0 0 0 0 0 0 0 0 0 0 0 0 0 0 0 0 0 0 0 0 0 0 0 0 0 0 0 0
0 0 0 0 0 0 0 0 0 0 0 0 0 0 0 0 0 0 0 0 0 0 0 0 0 0 0 0 0 0 0 0 0 0 0 0 0 0 0 0 0 0 0
0 0 0 0 0 0 0 0 0 0 0 0 0 0 0 0 0 0 0 0 0 0 0 0 0 0 0 0 0 0 0 0 1 0 0 0 0 0 1 2 1 0 0
0 0 0 0 0 0 0 0 0 0 0 0 0 0 0 0 0 0 0 0 0 0 0 0 0 0 0 0 0 0 0 0 0 0 0 0 0 1 3 4 2 0 0
0 0 0 0 0 0 0 0 0 0 0 0 0 0 0 0 0 0 0 0 0 0 0 0 0 0 0 0 0 0 0 0 0 0 0 0 0 1 4 6 4 1 0
0 0 0 0 0 0 0 0 0 0 0 0 0 0 0 0 0 0 0 0 0 0 0 0 0 0 0 0 0 0 0 0 0 0 0 0 0 0 3 7 9 6 3
0 0 0 0 0 0 0 0 0 0 0 0 0 0 0 0 0 0 0 0 0 0 0 0 0 0 0 0 0 0 0 0 0 0 0 0 0 0 1 7 14 14 10
0 0 0 0 0 0 0 0 0 0 0 0 0 0 0 0 0 0 0 0 0 0 0 0 0 0 0 0 0 0 0 0 0 0 0 0 0 0 0 4 11 16 15
0 0 0 0 0 0 0 0 0 0 0 0 0 0 0 0 0 0 0 0 0 0 0 0 0 0 0 0 0 0 0 0 0 0 0 0 0 0 0 1 5 10 12
0 0 0 0 0 0 0 0 0 0 0 0 0 0 0 0 0 0 0 0 0 0 0 0 0 0 0 0 0 0 0 0 0 0 0 0 0 0 0 0 1 5 8
0 0 0 0 0 0 0 0 0 0 0 0 0 0 0 0 0 0 0 0 0 0 0 0 0 0 0 0 0 0 0 0 0 0 0 0 0 0 0 0 1 3 6
0 0 0 0 0 0 0 0 0 0 0 0 0 0 0 0 0 0 0 0 0 0 0 0 0 0 0 0 0 0 0 0 0 0 0 0 0 0 0 0 0 2 4
0 0 0 0 0 0 0 0 0 0 0 0 0 0 0 0 0 0 0 0 0 0 0 0 0 0 0 0 0 0 0 0 0 0 0 0 0 0 0 0 0 1 2
0 0 0 0 0 0 0 0 0 0 0 0 0 0 0 0 0 0 0 0 0 0 0 0 0 0 0 0 0 0 0 0 0 0 0 0 0 0 0 0 0 0 1
0 0 0 0 0 0 0 0 0 0 0 0 0 0 0 0 0 0 0 0 0 0 0 0 0 0 0 0 0 0 0 0 0 0 0 0 0 0 0 0 0 0 0
0 0 0 0 0 0 0 0 0 0 0 0 0 0 0 0 0 0 0 0 0 0 0 0 0 0 0 0 0 0 0 0 0 0 0 0 0 0 0 0 0 0 0
0 0 0 0 0 0 0 0 0 0 0 0 0 0 0 0 0 0 0 0 0 0 0 0 0 0 0 0 0 0 0 0 0 0 0 0 0 0 0 0 0 0 0
1 2 2 2 1 0 0 0 0 0 0 0 0 0 0 0 0 0 0 0 0 0 0 0 0 0 0 0 0 0 0 0 0 0 0 0 0 0 0 0 0 0 0
16 16 17 15 9 4 1 0 0 0 0 0 0 0 0 0 0 0 0 0 0 0 0 0 0 0 0 0 0 0 0 0 0 0 0 0 0 0 0 0 0 0 0
47 46 44 38 26 14 6 2 0 0 0 0 0 0 0 0 0 0 0 0 0 0 0 0 0 0 0 0 0 0 0 0 0 0 0 0 0 0 0 0 0 0 0
67 63 59 50 36 22 11 4 1 0 0 0 0 0 0 0 0 0 0 0 0 0 0 0 0 0 0 0 0 0 0 0 0 0 0 0 0 0 0 0 0 0 0
55 50 43 36 26 17 11 5 1 0 0 0 0 0 0 0 0 0 0 0 0 0 0 0 0 0 0 0 0 0 0 0 0 0 0 0 0 0 0 0 0 0 0
29 24 18 13 10 7 6 3 1 0 0 0 0 0 0 0 0 0 1 0 0 0 0 0 0 0 0 0 0 0 0 0 0 0 0 0 0 0 0 0 0 0 0
11 9 5 2 1 2 2 1 0 0 0 0 0 0 0 0 0 0 0 0 0 0 0 0 0 0 0 0 0 0 0 0 0 0 0 0 0 0 0 0 0 0 0
6 5 3 1 0 0 0 0 0 0 0 0 0 0 0 0 0 0 0 0 0 0 0 0 0 0 0 0 0 0 0 0 0 0 0 0 0 0 0 0 0 0 0
Wind_Speed
5 6 11 13 13 13 13 14 14 14 14 15 17 17 16 16 15 14 14 13 11 10 11 12 12 12 11 11 11 12 12 13 13 13 13 13 13 12 12 11 10 8 11
8 7 13 14 14 14 13 14 14 14 14 14 15 15 15 15 14 13 13 12 11 11 10 10 11 11 12 12 12 12 12 12 12 12 12 11 11 11 11 10 10 7 10
10 7 11 14 15 15 14 14 14 14 14 13 13 13 13 13 12 12 11 11 10 10 10 9 10 10 11 11 11 11 11 12 11 11 10 5 6 9 10 10 10 9 9
10 6 7 15 15 15 15 14 14 14 14 13 12 12 11 11 11 10 10 9 9 9 9 9 9 9 9 10 10 10 10 11 12 11 4 3 4 9 10 9 9 8 7
8 6 8 15 14 14 14 13 13 14 14 13 12 11 11 10 9 9 8 8 8 8 8 8 9 9 8 9 9 9 9 10 10 7 3 2 2 9 10 9 8 8 7
8 6 8 15 14 13 13 12 12 12 12 12 11 10 9 8 8 7 7 6 6 6 6 7 7 8 8 7 7 8 8 8 7 3 2 3 3 7 9 9 9 8 7
8 6 8 14 14 13 12 11 11 11 11 11 10 9 8 7 7 6 6 5 4 4 5 6 6 6 6 6 6 5 5 6 4 2 2 4 5 7 9 10 10 9 9
9 6 7 14 14 13 13 11 11 11 10 10 9 9 8 7 6 6 5 5 5 4 4 4 5 5 6 6 6 5 5 5 3 2 2 4 7 9 11 11 10 10 10
8 6 5 7 10 13 13 12 11 11 10 9 9 8 7 6 5 5 4 5 5 5 4 5 5 5 6 6 6 6 6 6 2 1 2 3 7 11 13 12 12 12 11
6 5 5 5 5 5 7 12 12 12 11 10 9 8 8 7 6 5 4 4 5 5 6 6 6 7 7 6 7 7 8 6 3 3 2 3 7 11 13 13 13 13 13
7 5 5 6 5 5 5 8 10 11 10 9 7 8 6 2 1 2 4 5 6 7 7 7 7 7 7 7 8 9 7 2 3 3 3 7 9 10 13 13 14 15 15
11 8 5 6 6 5 5 4 2 2 3 3 2 2 2 1 1 2 3 7 8 8 8 8 8 7 5 2 4 7 3 4 4 4 5 11 12 13 13 14 16 17 17
11 9 7 6 6 5 3 2 2 1 2 2 2 2 1 0 1 2 2 4 5 6 3 4 4 2 2 2 2 3 4 4 4 4 6 13 14 15 16 15 16 18 19
10 10 8 6 6 5 4 3 3 2 2 2 3 2 2 1 2 3 2 3 3 2 2 2 2 3 3 3 4 5 6 4 5 5 7 14 15 17 18 18 18 19 20
10 9 8 7 6 5 4 3 3 3 3 3 2 3 3 3 3 3 3 3 3 2 2 2 2 3 4 4 4 5 6 6 6 6 5 13 15 16 18 19 19 19 20
10 9 8 8 7 6 5 4 4 4 3 3 3 4 4 3 3 3 3 3 3 3 3 3 3 3 3 3 4 4 4 4 4 5 5 8 13 16 18 18 18 18 17
10 8 8 9 7 7 6 6 4 4 4 4 4 4 5 4 4 3 3 3 3 3 3 2 2 1 2 2 3 3 3 3 3 5 5 5 6 11 16 18 18 18 17
8 8 9 9 8 8 7 6 4 4 4 4 3 3 5 5 5 3 3 3 3 2 2 2 1 1 2 2 3 3 2 2 3 4 4 4 5 6 10 15 17 17 17
10 9 9 8 9 9 7 5 4 4 4 4 3 3 4 5 5 4 3 3 2 2 2 2 2 2 2 3 3 3 2 2 2 3 4 5 5 6 6 9 14 15 16
10 9 10 9 8 7 5 4 3 3 3 3 3 4 5 4 5 4 3 3 3 2 2 2 3 2 2 2 3 4 3 3 2 2 3 4 5 6 6 7 7 8 11
9 9 10 9 8 7 4 4 3 3 2 2 3 4 5 5 5 5 3 4 4 4 4 3 2 2 2 1 1 3 3 3 3 3 2 3 4 5 5 6 5 5 5
8 8 8 8 8 7 4 3 3 3 2 2 2 2 4 5 5 5 5 4 4 4 4 4 3 2 2 2 1 1 4 4 3 2 2 2 3 3 5 6 6 6 5
4 5 4 4 4 4 5 3 2 2 1 0 1 2 3 4 5 5 5 5 5 4 4 5 5 4 3 2 2 2 1 3 4 3 2 3 3 3 4 5 6 6 6
3 2 2 2 2 2 2 3 3 2 1 1 1 2 4 3 4 5 5 5 5 4 5 5 5 4 3 3 2 3 3 2 1 4 3 2 3 3 4 4 5 5 6
6 5 5 4 4 3 3 2 2 1 1 1 2 3 4 3 3 3 3 4 4 3 4 4 4 4 4 4 3 3 3 3 3 3 4 5 3 2 2 3 3 4 5
6 6 6 6 4 3 3 3 3 3 3 3 3 3 3 1 1 2 1 1 1 2 2 3 3 5 4 4 4 4 3 3 4 4 4 4 3 3 2 2 2 3 3
Wind_Direction
154 160 160 145 137 130 125 121 117 116 116 120 125 130 133 133 132 130 127 124 120 115 112 115 119 118 112 106 105 108 115 120 124 128 125 119 115 112 107 101 96 92 96
146 157 160 149 141 135 130 124 121 119 119 122 125 129 131 132 131 130 128 124 120 117 117 120 123 126 125 123 121 122 125 128 131 131 127 122 120 117 114 111 106 102 102
141 153 156 151 145 141 136 131 128 126 124 122 123 126 129 130 132 130 127 125 123 121 123 127 131 132 132 132 132 133 135 137 137 133 123 114 127 129 125 119 113 108 107
139 143 150 152 148 146 144 140 136 133 131 129 128 128 129 130 132 131 130 129 127 127 129 133 137 136 135 138 140 141 143 143 141 135 128 132 147 147 138 131 125 118 113
134 139 159 151 150 149 149 148 145 142 141 142 141 139 137 136 133 131 132 133 133 133 135 137 138 138 140 143 145 145 146 147 144 137 136 122 136 156 150 146 142 131 123
135 146 162 152 153 152 152 153 151 150 151 151 153 152 150 146 141 140 141 141 139 142 145 145 144 144 148 152 155 157 159 159 136 130 156 169 172 173 166 165 162 151 143
142 150 155 152 154 154 154 156 157 156 157 159 161 161 161 160 160 162 167 171 166 156 156 159 160 162 167 170 175 177 180 180 145 155 175 190 201 198 187 185 181 172 161
147 143 149 154 154 154 153 152 153 156 159 164 169 171 170 173 177 183 187 191 193 194 190 181 177 181 193 198 201 203 206 214 192 184 197 198 212 213 204 201 197 190 179
144 140 146 152 156 158 156 154 155 155 158 162 165 168 169 173 183 197 205 208 210 216 222 220 216 213 218 225 228 225 224 232 198 226 245 213 222 220 217 212 208 203 195
143 148 152 146 147 152 158 163 163 163 164 163 165 168 172 178 184 196 206 230 234 237 241 244 244 241 236 237 246 249 243 243 223 227 244 245 241 232 228 221 216 213 206
160 160 153 149 152 153 162 175 170 171 172 171 173 179 174 166 180 210 220 238 248 252 254 255 255 253 251 249 252 256 261 236 227 234 237 251 255 246 236 229 223 219 215
173 174 165 162 160 158 171 166 159 159 165 162 164 179 151 161 233 249 265 258 260 263 263 262 262 260 258 244 262 270 263 252 245 243 242 252 255 253 248 240 230 224 220
173 176 176 173 164 162 162 147 148 142 156 177 195 200 167 202 281 283 289 283 284 288 287 296 306 291 268 238 237 249 258 261 256 256 253 259 260 259 258 253 242 232 225
174 183 179 175 167 168 162 157 160 167 190 208 215 207 191 225 255 265 260 261 265 271 276 280 285 287 276 260 249 253 258 258 259 259 261 266 265 264 264 260 254 244 233
181 187 181 174 172 171 167 165 169 190 211 223 225 221 209 219 239 248 250 246 246 242 244 255 260 269 273 271 262 258 264 267 267 263 266 273 278 276 276 273 266 259 247
185 186 177 180 178 173 176 179 185 195 213 223 229 231 223 223 234 242 247 242 241 234 233 238 247 253 263 269 271 265 265 270 271 274 273 281 287 288 286 283 280 273 264
187 182 177 184 178 181 188 192 190 194 200 216 226 230 228 223 228 233 241 238 240 239 237 233 246 257 277 278 275 275 273 279 289 290 288 280 285 289 289 288 285 280 272
182 182 185 189 182 188 192 196 200 200 202 218 222 224 229 225 214 208 227 235 233 225 214 210 214 268 283 282 281 280 271 273 285 290 291 290 287 285 289 289 287 283 278
186 185 186 184 183 189 187 185 197 202 207 211 212 218 225 223 210 201 222 238 227 218 217 209 201 206 262 280 286 284 274 266 277 295 303 305 303 298 295 293 292 287 282
188 186 185 182 179 172 162 158 173 189 200 193 205 220 220 218 212 199 211 223 208 216 230 222 223 211 231 266 295 292 276 264 257 268 293 307 313 318 321 317 309 299 291
184 185 184 180 174 162 157 164 168 186 188 194 215 228 226 219 210 199 202 210 201 213 228 224 225 236 243 194 312 315 304 272 259 255 275 302 323 333 339 342 334 322 306
191 191 189 188 180 177 171 160 154 155 168 195 216 239 233 223 214 206 207 210 206 214 230 221 207 224 244 180 164 334 326 332 325 275 276 298 324 336 351 351 344 337 327
194 203 200 197 187 177 156 134 114 99 96 135 262 267 253 238 226 212 209 208 209 207 220 219 204 210 232 218 183 183 228 288 314 311 290 301 322 340 350 350 349 350 353
160 129 128 137 133 122 130 129 140 150 193 248 276 284 290 278 249 227 213 206 211 212 221 223 211 210 211 231 206 216 219 195 251 313 311 301 309 328 348 351 349 357 4
130 124 120 112 100 86 72 87 110 124 239 280 296 298 300 299 280 250 222 210 215 216 225 228 221 214 209 216 205 204 215 208 210 226 287 312 318 309 333 348 346 2 13
121 122 125 124 122 124 134 156 171 198 225 257 269 272 270 265 354 21 37 148 193 206 224 233 233 230 223 219 208 202 197 191 196 200 239 277 300 303 322 336 348 10 21